Location: Csohesd
(46.2500°N, 22.6167°E)
Time: 02:55:45
(UTC+00:00)

Meteor 1-11 - Pass Details

Date: 21 October 2021
Orbit: 840 x 887 km, 81.2° (Epoch: 30 November)

Event Time Altitude Azimuth Distance (km) Brightness Sun altitude
Rises 17:14:33 0° 347° (NNW) 3,410 7.6 -18.3°
Reaches altitude 10° 17:16:58 10° 346° (NNW) 2,473 6.8 -18.7°
Maximum altitude 17:22:33 75° 262° (W) 881 4.4 -19.7°
Drops below altitude 10° 17:28:09 10° 178° (S) 2,478 6.5 -20.7°
Sets 17:30:34 0° 177° (S) 3,416 7.3 -21.1°
